Regional Weather Roundup
Issued by NWS Sioux Falls, SD

Home | Current Version | Previous Version | Text Only | Print | Product List | Glossary Off
Versions: 1 2 3 4 5 6 7 8 9 10 11 12 13 14 15 16 17 18 19 20 21 22 23 24 25 26 27 28 29 30 31 32 33 34 35 36 37 38 39 40 41 42 43 44 45 46 47 48 49 50

000
ASUS43 KFSD 020502
RWRFSD

WEATHER ROUNDUP FOR SE SOUTH DAKOTA/SW MINNESOTA/NW IOWA
NATIONAL WEATHER SERVICE SIOUX FALLS SD
1200 AM CDT TUE JUN 02 2015

NOTE: "FAIR" INDICATES FEW OR NO CLOUDS BELOW 12,000 FEET WITH NO
SIGNIFICANT WEATHER AND OR OBSTRUCTIONS TO VISIBILITY.


SDZ038>040-050-052>070-020600-
SOUTHEAST SOUTH DAKOTA

CITY           SKY/WX    TMP DP  RH WIND       PRES   REMARKS
BROOKINGS      CLEAR     64  48  55 SE13      30.01R
CHAMBERLAIN    NOT AVBL
HURON          MOCLDY    67  52  58 S16G24    29.91S
MADISON        FAIR      64  50  59 S17       30.00R
MITCHELL       CLOUDY    67  53  61 S17       29.95R
SIOUX FALLS    CLOUDY    66  50  56 S14       30.01S
WINNER         FAIR      69  58  67 S20G29    29.90S
YANKTON        CLEAR     66  50  55 S16       29.98F
$$

MNZ071-072-080-081-089-090-097-098-020600-
SOUTHWEST MINNESOTA

CITY           SKY/WX    TMP DP  RH WIND       PRES   REMARKS
FAIRMONT       CLEAR     57  37  47 SE9       30.09R
JACKSON        CLEAR     61  43  51 S9        30.08F
LUVERNE        CLEAR     63  48  59 S10       30.04S
MARSHALL       CLEAR     63  45  51 S13       30.02R
MONTEVIDEO     CLEAR     64  43  45 S13       30.02S
PIPESTONE      CLEAR     63  48  59 S10       30.03S
REDWOOD FALLS  CLEAR     63  38  39 SE14      30.05R
TRACY          CLEAR     63  46  52 S10       30.04S
WINDOM         CLEAR     59  43  55 SE8       30.07S
WORTHINGTON    CLEAR     63  45  51 S15G21    30.06F
$$

IAZ001>003-012>014-020>022-031-032-NEZ013-014-SDZ071-020600-
NORTHWEST IOWA

CITY           SKY/WX    TMP DP  RH WIND       PRES   REMARKS
ESTHERVILLE    CLEAR     58  42  55 S9        30.08R
SIOUX CITY     PTCLDY    64  50  60 SE12      30.04F
SPENCER        CLEAR     59  46  62 SE10      30.08R
$$

ABBREVIATIONS USED IN REMARKS
   TC - TEMPERATURE IN CELSIUS
  WCI - WIND CHILL INDEX
   HX - HEAT INDEX
  VSB - VISIBILITY




USA.gov is the U.S. government's official web portal to all federal, state and local government web resources and services.